Regional Weather Roundup
Issued by NWS

Home | Current Version | Previous Version | Text Only | Print | Product List | Glossary Off
Versions: 1 2 3 4 5 6 7 8 9 10 11 12 13 14 15 16 17 18 19 20 21 22 23 24 25 26 27 28 29 30 31 32 33 34 35 36 37 38 39 40 41 42 43 44 45 46 47 48 49 50

000
ASUS43 KMKX 230121
RWRWI

WISCONSIN REGIONAL WEATHER ROUNDUP
NATIONAL WEATHER SERVICE MILWAUKEE/SULLIVAN WI
800 PM CDT MON SEP 22 2014

NOTE: "FAIR" INDICATES FEW OR NO CLOUDS BELOW 12,000 FEET WITH NO
SIGNIFICANT WEATHER AND/OR OBSTRUCTIONS TO VISIBILITY.

WIZ001-002-006>008-014>016-023>028-230200-
NORTHWEST WISCONSIN

CITY           SKY/WX    TMP DP  RH WIND       PRES   REMARKS
SUPERIOR ARPT  CLEAR     60  52  76 SW3       30.11R
ASHLAND        CLEAR     57  52  83 S7        30.12R
HAYWARD        CLEAR     57  52  83 CALM      30.15R
SIREN          CLEAR     55  53  92 S3        30.15S
RICE LAKE      CLEAR     56  52  85 CALM      30.18S
LADYSMITH      CLEAR     56  51  84 CALM      30.18R
EAU CLAIRE     CLEAR     59  51  75 S3        30.17R
MENOMONIE      CLEAR     58  51  77 CALM      30.18R
NEW RICHMOND   CLEAR     56  51  82 CALM      30.17R
OSCEOLA        CLEAR     56  55  96 CALM      30.18S
$$

WIZ003>005-009-010-017-018-230200-
NORTH CENTRAL WISCONSIN

CITY           SKY/WX    TMP DP  RH WIND       PRES   REMARKS
MANITOWISH WTR NOT AVBL
ARBOR VITAE    CLEAR     57  51  82 CALM      30.16R
WOODRUFF       CLEAR     57  51  82 CALM      30.16R
RHINELANDER    CLEAR     52  48  86 W5        30.17R
EAGLE RIVER    CLEAR     50  49  97 CALM      30.15R
LAND O LAKES   CLEAR     48  46  95 CALM      30.15S
PHILLIPS       CLEAR     52  50  93 CALM      30.16R
TOMAHAWK       CLEAR     55  49  80 CALM      30.17R
MEDFORD        CLEAR     51  49  95 S3        30.19R
MERRILL        CLEAR     55  50  82 CALM      30.18R
$$

WIZ029-030-035-036-043>047-230200-
CENTRAL WISCONSIN

CITY           SKY/WX    TMP DP  RH WIND       PRES   REMARKS
WAUSAU         CLEAR     58  50  75 SW5       30.17R
MOSINEE        CLEAR     57  52  82 W5        30.20R
MARSHFIELD     CLEAR     57  51  80 W5        30.19R
STEVENS POINT  CLEAR     56  49  78 CALM      30.19R
WAUPACA        CLEAR     59  51  74 CALM      30.19R
WAUTOMA        CLEAR     54  51  89 CALM      30.20R
WISC RAPIDS    CLEAR     53  52  96 CALM      30.20R
CAMP DOUGLAS   CLEAR     50  50 100 CALM      30.20R
$$

WIZ011>013-019>022-031-037>040-048>050-230200-
NORTHEAST WISCONSIN

CITY           SKY/WX    TMP DP  RH WIND       PRES   REMARKS
ANTIGO         CLEAR     53  49  85 W7        30.18R
SHAWANO        NOT AVBL
OCONTO         NOT AVBL
STURGEON BAY   CLEAR     57  48  72 SW6       30.16S
GREEN BAY      CLEAR     54  51  90 SW3       30.17R
MANITOWOC      CLEAR     54  51  90 CALM      30.19R
APPLETON       CLEAR     61  48  63 SW7       30.18R
CLINTONVILLE   CLEAR     54  48  82 W3        30.18R
OSHKOSH        CLEAR     59  50  72 SW3       30.18R
$$

WIZ032>034-041-042-053>061-230200-
SOUTHWEST WISCONSIN

CITY           SKY/WX    TMP DP  RH WIND       PRES   REMARKS
LA CROSSE      CLEAR     61  52  72 CALM      30.19R
SPARTA         CLEAR     55  50  85 CALM      30.20R
VIROQUA        FAIR      54  52  92 CALM      30.21R
BOSCOBEL       CLEAR     56  52  86 CALM      30.21R
PRAIRIE DU CHI CLEAR     57  52  83 CALM      30.20R
PLATTEVILLE    FAIR      59  48  67 S6        30.23R
$$

WIZ056-057-062-063-064-067-068-230200-
SOUTH CENTRAL WISCONSIN

CITY           SKY/WX    TMP DP  RH WIND       PRES   REMARKS
REEDSBURG      NOT AVBL
BARABOO/DELLS  CLEAR     55  49  81 CALM      30.20R
LONE ROCK      CLEAR     57  50  77 E3        30.21R
MINERAL POINT  CLEAR     61  46  59 SW5       30.22R
WATERTOWN      CLEAR     54  50  87 CALM      30.21R
MADISON        CLEAR     57  50  77 CALM      30.21R
MIDDLETON      FAIR      55  52  88 CALM      30.22R
MONROE         CLEAR     59  48  67 SW5       30.23R
JANESVILLE     CLEAR     59  48  67 CALM      30.22R
$$

WIZ051-052-058>065-066-070>072-230200-
SOUTHEAST WISCONSIN

CITY           SKY/WX    TMP DP  RH WIND       PRES   REMARKS
MILWAUKEE      CLEAR     63  46  54 W7        30.21R
WAUKESHA       CLEAR     55  46  71 SW5       30.22R
MILWAUKEE/TIMM CLEAR     63  46  55 CALM      30.22R
RACINE         CLEAR     54  49  83 S3        30.24R
BURLINGTON     CLEAR     49  47  91 SW3       30.22S
KENOSHA        CLEAR     54  47  77 CALM      30.23R
FOND DU LAC    CLEAR     58  49  72 SW5       30.20R
SHEBOYGAN      CLEAR     53  49  86 CALM      30.20R
WEST BEND      CLEAR     54  46  76 CALM      30.21R
JUNEAU         CLEAR     55  49  80 CALM      30.22R
$$

LSZ147-162-230200-
LAKE SUPERIOR

STATION/POSITION TIME  TEMP    WIND        PRES    WAVE
                       AIR SEA DIR/SP/G            HT/PER
                 (UTC) (F)     (DEG/KT/KT) (MB)    (FT/S)
W MID LAKE BUOY  0050   53 48  230/ 10/ 10 1018.1R   2/ 4
DEVILS ISLAND    0100   63     220/ 13/ 15 1018.8R
PORT WING        0000   65     190/  6/  6 1019.0S
SAXON HARBOR     0000   60      CALM  /  4 1019.3F
$$

LMZ867-665-643>646-230200-
LAKE MICHIGAN

STATION/POSITION TIME  TEMP    WIND        PRES    WAVE
                       AIR SEA DIR/SP/G            HT/PER
                 (UTC) (F)     (DEG/KT/KT) (MB)    (FT/S)
CHAMBERS ISLAND  0000   62     210/  6/  9 1020.0S
S GREEN BAY BUOY 0100   61                 1022.1R
N MID LAKE BUOY  0050   58 57  210/ 17/ 19 1020.1R   3/ 4
NORTHPORT PIER   0100   57     170/  2/  6 1020.3R
KEWAUNEE LAKESHO 0100   58     260/  2/  2 1020.6R
SHEBOYGAN LAKESH 0100   57 52  200/  6/  6 1023.0R
PORT WASHINGTON  0000   57     200/  6/  9 1022.7
ATWATER BUOY     0100   57     170/  6/  6 1023.8R
S MID LAKE BUOY  0050   60 62  180/ 10/ 12 1023.8R   1/ 6
KENOSHA   LAKESH 0100   57     200/  6/  7 1023.0R
$$

TC  - TEMPERATURE IN CELSIUS
VSB - VISIBILITY IN STATUTE MILES
WCI - WIND CHILL INDEX
HX  - HEAT INDEX



USA.gov is the U.S. government's official web portal to all federal, state and local government web resources and services.